Regional Weather Roundup
Issued by NWS

Home | Current Version | Previous Version | Graphics & Text | Print | Product List | Glossary On
Versions: 1 2 3 4 5 6 7 8 9 10 11 12 13 14 15 16 17 18 19 20 21 22 23 24 25 26 27 28 29 30 31 32 33 34 35 36 37 38 39 40 41 42 43 44 45 46 47 48 49 50
000
ASUS43 KOAX 021410
RWRNE

WEATHER ROUNDUP FOR NEBRASKA
NATIONAL WEATHER SERVICE OMAHA NE
900 AM CDT TUE SEP 02 2014

NOTES: SATELLITE DATA IS BEING USED TO AUGMENT CLOUD COVER ABOVE
       12000 FEET.
       "FAIR" INDICATES FEW OR NO CLOUDS BELOW 12,000 FEET WITH NO
       SIGNIFICANT WEATHER AND/OR OBSTRUCTIONS TO VISIBILITY.

  * THESE STATIONS DO NOT REPORT WEATHER SUCH AS RAIN...SNOW OR FOG.

NEZ001>004-019>022-054>056-021500-
NEBRASKA PANHANDLE

CITY           SKY/WX    TMP DP  RH WIND       PRES   REMARKS
SCOTTSBLUFF    SUNNY     53  49  86 E5        30.07S
ALLIANCE       SUNNY     50  47  89 CALM      30.06S
CHADRON        SUNNY     52  48  86 CALM      30.01F
KIMBALL        SUNNY     54  46  75 W7        30.09F
SIDNEY         SUNNY     55  48  77 W5        30.10S
$$

NEZ057>060-069>072-079>082-021500-
SOUTHWEST NEBRASKA

CITY           SKY/WX    TMP DP  RH WIND       PRES   REMARKS
NORTH PLATTE   SUNNY     55  52  89 W5        30.07R
IMPERIAL       PTSUNNY   56  51  84 CALM      30.10R
LEXINGTON      SUNNY     56  55  96 W3        30.08R
MCCOOK         SUNNY     60  55  83 MISG      30.07S
OGALLALA       SUNNY     50  49  98 W5        30.09R
$$

NEZ005>010-023>029-035>040-094-021500-
NORTH CENTRAL NEBRASKA

CITY           SKY/WX    TMP DP  RH WIND       PRES   REMARKS
VALENTINE      SUNNY     55  52  89 SW7       30.00F
AINSWORTH      SUNNY     56  51  82 W5        30.01S
BROKEN BOW     SUNNY     58  54  86 S5        30.04R
O`NEILL        SUNNY     59  54  84 W9        30.00R
ORD            SUNNY     58  54  86 W5        30.02R
THEDFORD       SUNNY     55  53  94 W6        30.05R
$$

NEZ041-046>049-061>064-073>077-083>087-021500-
SOUTH CENTRAL NEBRASKA

CITY           SKY/WX    TMP DP  RH WIND       PRES   REMARKS
GRAND ISLAND   SUNNY     62  54  74 SW8       30.06R
AURORA         SUNNY     59  57  92 W3        30.05R
HASTINGS       SUNNY     61  54  77 W5        30.05R
HEBRON         SUNNY     61  55  79 CALM      30.04R
HOLDREGE       SUNNY     59  56  88 CALM      30.06S
KEARNEY *      SUNNY     59  54  82 SW5       30.07R
YORK           SUNNY     59 N/A N/A NW7       30.04R
$$

NEZ011>018-030>034-042>045-021500-
NORTHEAST NEBRASKA

CITY           SKY/WX    TMP DP  RH WIND       PRES   REMARKS
NORFOLK        SUNNY     61  55  81 W3        30.00R
ALBION         SUNNY     56  55  94 CALM      30.02R
BLAIR          PTSUNNY   61  59  94 W3        30.01R
FREMONT        SUNNY     63  58  83 SW5       30.02R
TEKAMAH        SUNNY     61  58  90 W3        30.00R
WAYNE          SUNNY     61  56  83 NW5       29.99S
$$

NEZ050>053-065>068-078-088>093-021500-
SOUTHEAST NEBRASKA

CITY           SKY/WX    TMP DP  RH WIND       PRES   REMARKS
LINCOLN        SUNNY     63  57  81 S3        30.03R
OMAHA EPPLEY   MOSUNNY   64  57  78 CALM      30.01R
BEATRICE       SUNNY     63  58  85 N8        30.02S
FALLS CITY     MOSUNNY   65  62  90 NW6       29.98S
NEBRASKA CITY  SUNNY     64  63  96 NW8       30.01S
PLATTSMOUTH    SUNNY     62  59  88 NW6       30.02R
$$

NEZ044-045-051>053-067-021500-
OMAHA AREA

CITY           SKY/WX    TMP DP  RH WIND       PRES   REMARKS
OMAHA EPPLEY   MOSUNNY   64  57  78 CALM      30.01R
BLAIR          PTSUNNY   61  59  94 W3        30.01R
FREMONT        SUNNY     63  58  83 SW5       30.02R
MILLARD        SUNNY     64  58  79 NW3       30.01S
OFFUTT AFB     SUNNY     64  63  97 NW3       30.01R
PLATTSMOUTH    SUNNY     62  59  88 NW6       30.02R
WAHOO          FAIR      62  57  82 SW3       30.02R
$$



USA.gov is the U.S. government's official web portal to all federal, state and local government web resources and services.